User: anonymous
Location: Platte
(43.3870°N, 98.8440°W)
Time: 08:57:51
(UTC-05:00)
Language:

Landsat 7 - Orbit

View from above orbital plane
View from above orbital plane
View from above satellite
View from above satellite

Ground track
Ground track

The orbit data is extracted from the following two-line orbital elements,

1 25682U 99020A   14113.08341969  .00000805  00000-0  18877-3 0  1712
2 25682 098.2191 183.4153 0000661 090.4290 269.6990 14.57103089798965
Epoch (UTC): 23 April 2014 02:00:07
Eccentricity: 0.0000661
inclination: 98.2191°
perigee height: 702 km
apogee height: 703 km
right ascension of ascending node: 183.4153°
argument of perigee: 90.4290°
revolutions per day: 14.57103089
mean anomaly at epoch: 269.6990°
orbit number at epoch: 79896

The dashed part of the orbit path shows where the satellite is in the earth's shadow,  

DLR